Weather in San Pedro de Macorís

Dominican Republic     18°27′47″N   69°18′08″W
temp.,
°C
wind,
m/s
gust,
m/s
humid.,
%
clouds,
%
prec.,
mm/h
press.,
hPa
HPBL,
m
27 november, sat
sat2723:00+22ne34798 0.0 101499
02:00+22ne34826 0.0 101387
05:00+21ne23845 0.0 101368
08:00+23nne247972 0.0 1015129
11:00+28ne335729 0.0 10161145
14:00+30ne335298 0.0 10131455
17:00+27ne676398 0.0 1012684
20:00+22ne498248 0.0 1014214
28 november, sun
sun2823:00+22ne498245 0.0 1015204
02:00+21nne358642 0.0 1014119
05:00+21nne348980 0.0 101489
08:00+23ne3581100 0.0 1015142
11:00+29ne455592 0.0 10151297
14:00+30ne555036 0.0 10121337
17:00+27ne566414 0.0 1012597
20:00+23ne49885 0.0 1014224
29 november, mon
mon2923:00+22ne46915 0.0 1015146
02:00+22nne34935 0.0 101483
05:00+21nne239411 0.0 101368
08:00+23nne23885 0.0 1014123
11:00+29ene236055 0.0 10151144
14:00+30sse235326 0.0 10121527
17:00+27sse45735 0.1 1012345
20:00+24ene34865 0.3 1014181
30 november, tue
tue3023:00+22ne34936 0.0 101595
02:00+22nne23938 0.0 101470
05:00+22nne239351 0.0 101459
08:00+23nne239049 0.0 1015119
11:00+29ne456022 0.0 10161194
14:00+31ne444899 0.0 10131526
17:00+28ne3462100 0.1 1013494
20:00+24ne4887100 0.1 1015219
1 december, wed
wed123:00+23ne359366 0.0 1016130
02:00+23ne3493100 0.0 1015103
05:00+22nne34946 0.1 101597
08:00+24nne358897 0.1 1016187
11:00+30ene45586 0.1 10171374
14:00+29sse456481 0.2 1014738
17:00+27ene237469 0.9 1014112
20:00+23ne499356 1.1 1016272